Location: Barro Blanco
(5.5843°N, 75.6698°W)
Time: 23:12:09
(UTC+00:00)

Daily predictions for brighter satellites

Satellite Brightness Start Highest point End
(mag) Time Altitude Azimuth Time Altitude Azimuth Time Altitude Azimuth
BLOCK DM-SL R/B 3.8 23:12:13 10° WSW 23:15:42 41° SSE 23:31:40 10° E
FengYun 1-2 T 4.2 23:12:04 10° SSE 23:17:33 72° ENE 23:23:04 10° N
Cosmos 773 Rocket 4.2 23:13:35 10° NNW 23:18:48 82° W 23:24:04 10° S
Delta 7925 Rocket 4.2 23:14:58 10° NW 23:19:22 37° NNE 23:24:28 10° E
Cosmos 2221 Rocket 4.2 23:15:20 10° NNW 23:19:48 65° W 23:24:13 10° S
Cosmos 1378 3.6 23:17:29 10° NNE 23:20:55 37° E 23:24:22 10° SSE
USA 116 3.9 23:20:27 10° NNE 23:24:29 75° ESE 23:29:04 10° S
Cosmos 1975 2.8 23:21:42 10° S 23:25:45 87° E 23:29:50 10° N
Ariane H10 2.9 23:23:03 10° W 23:26:22 74° S 23:38:45 11° E
CZ-4 R/B 2.5 23:24:36 10° SE 23:28:04 25° ENE 23:31:31 10° NNE
Cosmos 1271 Rocket 2.7 23:24:15 10° N 23:28:12 76° E 23:32:07 10° S
GP-B 3.0 23:23:54 10° N 23:28:19 71° E 23:32:43 10° S
Cosmos 1782 Rocket 3.5 23:24:30 10° S 23:28:50 69° E 23:33:09 10° N
Tsikada Rocket 4.3 23:23:25 10° NNE 23:29:14 45° E 23:35:07 10° SSE
Okean O Rocket 4.2 23:28:51 10° SSW 23:32:30 25° WSW 23:36:10 10° NW
ARIANE 5 R/B 3.1 23:32:22 10° WSW 23:35:46 43° S 23:39:14 12° ESE
Cosmos 372 Rocket 3.9 23:33:18 10° S 23:38:33 76° E 23:43:46 10° NNE
Cosmos 807 3.9 23:36:50 10° S 23:39:50 89° E 23:42:42 10° N
Feng Yun 1-1 Rocket 4.3 23:34:29 10° S 23:39:52 80° WSW 23:45:18 10° NNW
Shenzhou-11 Module 3.7 23:39:13 10° W 23:40:56 20° NW 23:42:38 10° N
Cosmos 2150 Rocket 4.3 23:37:36 10° S 23:42:33 44° ESE 23:47:34 10° NNE
Palapa 6 Rocket 2.8 23:40:00 10° SW 23:43:38 53° SSE 23:46:16 18° E
ARIANE 5 R/B 2.3 23:35:58 10° W 23:46:51 55° SSW 23:48:55 18° ESE
ARIANE 5 DEB (SYLDA) 4.1 23:27:45 10° W 23:47:26 72° S 23:50:52 18° ESE
Cosmos 1538 Rocket 4.4 23:42:49 10° NNW 23:48:07 71° WSW 23:53:28 10° S
Cosmos 1125 Rocket 4.1 23:48:13 10° SSE 23:52:55 33° ESE 23:57:38 10° NE
